Location: Alpha Ridge Park
(39.3209°N, 76.9128°W)
Time: 03:42:30
(UTC-04:00)

Transit 2A - Pass Details

Date: 25 May 2019
Orbit: 593 x 966 km, 66.7° (Epoch: 25 June)

Event Time Altitude Azimuth Distance (km) Brightness Sun altitude
Rises 08:42:10 0° 229° (SW) 3,546 9.0 31.7°
Reaches altitude 10° 08:44:48 10° 236° (WSW) 2,642 8.4 32.2°
Maximum altitude 08:50:40 42° 307° (NW) 1,345 7.3 33.3°
Drops below altitude 10° 08:56:42 10° 17° (NNE) 2,706 9.1 34.5°
Sets 08:59:26 0° 24° (NNE) 3,640 9.8 35.0°
